Location: Home
(42.5358°N, 72.7383°W)
Time: 07:26:00
(UTC-05:00)

Envisat - Pass Details

Date: 26 October 2021
Orbit: 764 x 766 km, 98.2° (Epoch: 07 December)

Event Time Altitude Azimuth Distance (km) Brightness Sun altitude
Rises 05:44:28 0° 16° (NNE) 3,242 6.4 -17.7°
Reaches altitude 10° 05:46:48 10° 19° (NNE) 2,311 5.7 -17.3°
Maximum altitude 05:51:52 64° 101° (E) 849 3.5 -16.4°
Drops below altitude 10° 05:56:52 10° 183° (S) 2,293 5.5 -15.4°
Sets 05:59:11 0° 186° (S) 3,214 6.2 -15.0°
